Location: Palm Bay
(27.9400°N, 80.7200°W)
Time: 06:33:02
(UTC-05:00)

Daily predictions for brighter satellites

Satellite Brightness Start Highest point End
(mag) Time Altitude Azimuth Time Altitude Azimuth Time Altitude Azimuth
NOSS 3-4 (A) 4.3 18:12:01 10° NNW 18:18:46 41° ENE 18:25:54 10° SE
NOSS 3-4 (C) 4.3 18:12:08 10° NNW 18:18:52 40° ENE 18:26:00 10° SE
Cosmos 371 Rocket 3.5 18:16:56 10° S 18:21:35 51° ESE 18:26:14 10° NNE
Cosmos 1328 Rocket 4.3 18:18:11 10° NNE 18:21:58 29° E 18:25:44 10° SE
Cosmos 2082 Rocket 4.0 18:21:54 10° ESE 18:22:23 10° E 18:22:51 10° E
SMAP 4.0 18:19:14 10° S 18:23:47 55° W 18:28:21 10° NNW
Cosmos 2228 Rocket 4.2 18:22:40 10° NNE 18:26:28 25° E 18:30:14 10° SE
ISS -2.9 18:25:24 10° SSW 18:28:21 33° SE 18:31:12 11° ENE
CZ-4 R/B 4.4 18:25:43 10° SSE 18:29:48 74° ENE 18:33:55 10° N
SEDSat Delta rocket 4.2 18:26:09 10° W 18:32:56 66° N 18:38:57 12° ENE
Cosmos 2058 2.9 18:32:02 10° S 18:36:07 61° E 18:40:15 10° NNE
SL-08 R/B 4.4 18:31:04 10° N 18:37:14 84° E 18:43:19 10° S
Cosmos 2098 Rocket 4.2 18:31:23 10° N 18:37:20 54° E 18:44:19 10° SSE
Cosmos 1570 Rocket 4.0 18:35:06 10° S 18:40:21 64° ESE 18:45:35 10° NNE
H-2A R/B 3.9 18:38:04 10° SE 18:41:01 22° ENE 18:44:00 10° NNE
COSMOS 2406 3.7 18:37:18 10° SSW 18:42:58 63° WNW 18:48:39 10° NNE
DMSP B5D1-3 4.5 18:38:17 10° NNE 18:43:24 78° ESE 18:48:29 10° S
Delta R/B 1.6 18:43:32 10° WSW 18:44:45 41° S 18:45:13 28° ESE
Cosmos 1833 Rocket 4.0 18:41:01 10° SE 18:44:55 19° E 18:47:19 15° ENE
Cosmos 2366 rocket 4.3 18:41:55 10° N 18:48:03 69° W 18:54:09 10° S
CZ-4 R/B 3.2 18:44:18 10° SSW 18:48:11 37° W 18:52:07 10° NNW
Meteor 1-27 4.2 18:44:23 10° N 18:50:07 68° E 18:55:54 10° SSE
Cosmos 1455 2.5 18:46:50 10° N 18:50:29 43° E 18:54:05 10° SSE
Cosmos 1151 Rocket 3.5 18:46:36 10° NNE 18:50:42 39° E 18:54:47 10° SSE
YAOGAN 1 3.4 18:47:08 10° S 18:51:21 54° W 18:55:36 10° NNW
Cosmos 1626 4.2 18:48:45 10° SW 18:52:00 29° W 18:55:15 10° NNW
Cosmos 1821 Rocket 4.4 18:47:42 10° NNE 18:53:22 37° E 18:59:06 10° SSE
Cosmos 1346 Rocket 2.7 18:49:40 10° N 18:53:34 88° WSW 18:57:25 10° S
Hubble Space Telescope 1.3 18:52:38 10° WSW 18:56:36 46° SSE 18:58:58 21° E
NOAA 12 4.0 18:52:55 10° SSE 18:58:08 81° ENE 19:03:23 10° N
SL-27 R/B 2.5 18:55:20 10° S 18:58:38 52° ESE 19:00:56 19° NNE
Nadezhda 3 Rocket 4.1 18:53:32 10° S 18:59:50 86° W 19:06:14 10° N
Centaur D-1A AC-32 3.4 19:02:23 10° SW 19:05:37 32° SSE 19:08:32 20° E
Cosmos 2151 3.7 19:02:12 10° SSW 19:06:22 55° W 19:10:34 10° N
Fermi 4.2 19:04:10 10° W 19:08:14 57° S 19:10:26 25° ESE
Cosmos 304 Rocket 3.8 19:06:33 10° S 19:11:11 54° ESE 19:14:11 21° NNE
ALOS 3.1 19:07:38 10° S 19:12:10 53° W 19:16:43 10° NNW
ERS-2 2.0 19:10:36 10° SSE 19:14:15 84° ENE 19:17:56 10° N
Delta 2 Rocket 4.4 19:12:25 10° SW 19:18:00 52° SSE 19:20:17 32° E
Centaur AC-64 3.0 19:15:40 10° WSW 19:18:02 40° SSE 19:19:40 27° ESE
Thor Agena Rocket 3.5 19:12:58 10° NNE 19:18:09 64° ESE 19:23:15 10° S
Cosmos 909 Rocket 4.1 19:17:35 10° NNW 19:23:53 54° ENE 19:30:02 10° SE
Delta 168 4.1 19:16:41 10° W 19:25:08 72° S 19:27:49 34° ESE
Cosmos 1934 Rocket 4.1 19:21:27 10° N 19:27:40 54° E 19:33:49 10° SSE
CZ-4C R/B 2.1 19:22:54 10° SSW 19:27:49 73° WNW 19:31:21 22° NNE
Atlas Centaur 2 3.9 19:23:27 10° SSW 19:29:19 24° SSE 19:31:19 21° SE
Cosmos 1515 Rocket 4.3 19:26:26 10° NNW 19:30:38 52° W 19:34:50 10° S
Tiangong 1 3.5 19:30:53 10° NW 19:31:09 12° NW 19:31:09 12° NW
Cosmos 1340 4.3 19:30:56 10° N 19:36:56 23° SSE 19:38:27 10° S
In-Cosmos 22 Rocket 4.4 19:32:30 10° SSE 19:36:59 43° ESE 19:36:59 43° ESE
Lacrosse 5 3.0 19:33:24 10° WSW 19:38:10 40° NW 19:40:56 22° N
OAO 3 Rocket 3.0 19:33:44 10° WNW 19:38:26 88° NNE 19:39:05 66° ESE
Cosmos 1727 Rocket 4.0 19:36:34 10° SSE 19:42:28 51° E 19:43:00 49° ENE
Delta 7925 Rocket 3.9 19:40:58 10° WSW 19:48:11 64° S 19:49:24 52° ESE
ASTRO E2 3.6 19:48:14 10° WNW 19:51:08 44° NW 19:51:08 44° NW
Cosmos 841 Rocket 3.4 19:52:27 10° SSW 19:57:23 78° SSE 19:57:23 78° SSE
Cosmos 1814 Rocket 4.4 19:52:42 10° SSW 19:57:59 64° WNW 19:59:56 38° N
ATLAS 2A CENTAUR R/B 3.7 19:57:15 10° SW 19:57:39 11° SSW 19:57:39 11° SSW
ATLAS CENTAUR R/B 3.0 19:58:06 10° SSW 19:59:50 26° SW 19:59:50 26° SW
Mugunghwa Rocket 4.2 19:58:39 10° WSW 20:04:43 51° SSE 20:04:48 51° SSE
ISS -0.8 20:02:55 10° WNW 20:03:53 13° WNW 20:03:53 13° WNW
Cosmos 1763 Rocket 4.0 20:00:30 10° SSW 20:05:31 54° WNW 20:06:38 45° NNW
Cosmos 2082 Rocket 2.3 20:00:06 10° SSW 20:05:45 70° WNW 20:06:43 58° NNW
SEDSat Delta rocket 4.1 20:13:20 10° WNW 20:19:05 63° NW 20:19:05 63° NW
Cosmos 1833 Rocket 3.8 20:23:15 10° SW 20:28:27 39° WNW 20:29:06 38° NW
Hubble Space Telescope 3.7 20:33:36 10° W 20:34:20 15° W 20:34:20 15° W
